Location: Sternwarte Stuttgart
(48.7670°N, 9.1830°E)
Time: 21:07:32
(UTC+02:00)

Okean 3 Rocket - Pass Details

Date: 24 January 2019
Orbit: 616 x 644 km, 82.5° (Epoch: 16 October)

Event Time Altitude Azimuth Distance (km) Brightness Sun altitude
Exits shadow 06:38:31 - 345° (NNW) 2,927 6.7 -13.8°
Rises 06:38:33 0° 345° (NNW) 2,911 6.7 -13.8°
Reaches altitude 10° 06:40:50 10° 340° (NNW) 2,003 5.9 -13.5°
Maximum altitude 06:45:07 49° 266° (W) 812 3.8 -12.8°
Drops below altitude 10° 06:49:23 10° 192° (SSW) 2,003 6.2 -12.1°
Sets 06:51:40 0° 187° (S) 2,911 7.1 -11.7°
